[[{"header":{"parameterUnit":"m.s-1","parameterCategory":1,"la1":30.2992,"la2":30.254,"lo1":-89.0895,"lo2":-89.0443,"dy":0.0025,"dx":0.0025,"nx":19,"ny":19,"refTime":"2026-03-09T21:00:00:Z","depth":0,"parameterNumber":2,"parameterNumberName":"U-component_of_WINDS"},"data":[0,0,0,-2.1795,-2.1797,-2.188,-2.1881,-2.1985,-2.1986,0,0,0,0,0,0,0,0,0,0,0,-2.1769,-2.1769,-2.1795,-2.1797,-2.188,-2.1881,-2.1985,-2.1986,0,0,0,0,0,0,0,0,0,0,0,-2.1768,-2.1769,-2.177,-2.1797,-2.188,-2.1881,-2.1985,-2.1923,0,0,0,0,0,0,0,0,0,0,-2.1843,-2.1816,-2.1769,-2.177,-2.1798,-2.188,-2.1881,-2.192,-2.1927,-2.1947,0,-2.1963,0,-2.1976,-2.1993,-2.1993,0,0,0,-2.1799,-2.181,-2.1834,-2.177,-2.1799,-2.188,-2.1843,-2.1924,-2.1932,-2.1956,-2.1964,-2.1968,-2.1978,-2.1994,-2.1994,-2.2099,-2.2099,0,0,-2.1794,-2.1783,-2.1829,-2.1839,-2.1825,-2.1841,-2.1846,-2.1929,-2.1938,-2.1965,-2.1971,-2.198,-2.1994,-2.1995,-2.2098,-2.2099,0,0,0,-2.178,-2.178,-2.1802,-2.1835,-2.185,-2.1843,-2.1849,-2.1934,-2.1942,-2.1972,-2.1981,-2.1995,-2.1996,-2.2098,-2.2098,-2.2106,0,0,0,-2.1777,-2.1771,-2.18,-2.1793,-2.1848,-2.1893,-2.1852,-2.1936,-2.1946,-2.198,-2.1995,-2.1997,-2.2097,-2.2098,-2.2104,-2.2111,0,0,0,-2.1764,-2.177,-2.1781,-2.1793,-2.1828,-2.1892,-2.1905,-2.1939,-2.1952,-2.1994,-2.1998,-2.2097,-2.2098,-2.2103,-2.2109,-2.2134,0,0,0,-2.1747,-2.1787,-2.1781,-2.183,-2.1827,-2.1895,-2.1904,-2.1956,-2.1993,-2.1996,-2.2097,-2.2098,-2.2103,-2.2108,-2.2133,-2.2151,-2.2158,0,0,-2.1792,-2.1792,-2.1822,-2.1819,-2.1885,-2.1884,-2.1952,-2.1997,-2.2013,-2.2069,-2.2072,-2.2105,-2.2109,-2.2134,-2.2204,-2.2209,0,0,0,-2.1833,-2.1854,-2.1874,-2.1908,-2.1943,-2.1973,-2.2009,-2.2026,-2.2074,-2.2039,-2.2121,-2.2124,-2.2139,-2.2149,-2.2153,-2.2166,-2.2103,-2.2102,-2.2102,-2.188,-2.1896,-2.1946,-2.1972,-2.2005,-2.2041,-2.2069,-2.2098,-2.2107,-2.2126,-2.2142,-2.2183,-2.2193,-2.2197,-2.221,-2.2155,-2.2155,-2.2155,-2.2155,-2.1946,-2.1978,-2.1986,-2.2038,-2.2055,-2.2099,-2.2136,-2.214,-2.2183,-2.2172,-2.2186,-2.2171,-2.2202,-2.2215,-2.2155,-2.2155,-2.2155,-2.2155,-2.2155,-2.1978,-2.1996,-2.2015,-2.2064,-2.2101,-2.2127,-2.2168,-2.2183,-2.2198,-2.2211,-2.223,-2.2229,-2.223,-2.2219,-2.2219,-2.2219,-2.2219,-2.222,-2.222,-2.2003,-2.2024,-2.2055,-2.2095,-2.2118,-2.2151,-2.2187,-2.2211,-2.2241,-2.2249,-2.2249,-2.2254,-2.2203,-2.2188,-2.2222,-2.2222,-2.2221,-2.2221,-2.2221,-2.2062,-2.2051,-2.21,-2.2122,-2.217,-2.2205,-2.2223,-2.227,-2.2292,-2.2311,-2.2314,-2.2274,-2.2276,-2.2272,-2.226,-2.2311,-2.2311,-2.2311,-2.2311,-2.2088,-2.209,-2.2143,-2.2178,-2.2215,-2.2236,-2.2291,-2.232,-2.2349,-2.2363,-2.2358,-2.2345,-2.234,-2.2345,-2.234,-2.2329,-2.2396,-2.2396,-2.2396,-2.2125,-2.2131,-2.2174,-2.22,-2.2238,-2.2271,-2.2323,-2.2364,-2.2394,-2.24,-2.2374,-2.2371,-2.2349,-2.2341,-2.2345,-2.2337,-2.2317,0,0]},{"header":{"parameterUnit":"m.s-1","parameterCategory":1,"la1":30.2992,"la2":30.254,"lo1":-89.0895,"lo2":-89.0443,"dy":0.0025,"dx":0.0025,"nx":19,"ny":19,"refTime":"2026-03-09T21:00:00:Z","depth":0,"parameterNumber":3,"parameterNumberName":"V-component_of_WINDS"},"data":[0,0,0,3.0478,3.048,3.0576,3.0576,3.0697,3.0698,0,0,0,0,0,0,0,0,0,0,0,3.0444,3.0445,3.0478,3.048,3.0576,3.0576,3.0696,3.0698,0,0,0,0,0,0,0,0,0,0,0,3.0444,3.0445,3.0445,3.048,3.0576,3.0576,3.0696,3.0626,0,0,0,0,0,0,0,0,0,0,3.0533,3.0496,3.0445,3.0445,3.0481,3.0576,3.0576,3.0622,3.063,3.0651,0,3.0665,0,3.0683,3.0705,3.0706,0,0,0,3.0485,3.0489,3.052,3.0446,3.0482,3.0575,3.0534,3.0627,3.0635,3.0661,3.0667,3.0672,3.0685,3.0706,3.0707,3.0807,3.0807,0,0,3.0479,3.0459,3.0514,3.0525,3.0506,3.0531,3.0537,3.0632,3.0638,3.0667,3.0675,3.0687,3.0707,3.0708,3.0807,3.0807,0,0,0,3.0461,3.0455,3.0484,3.052,3.0537,3.0533,3.054,3.0634,3.0645,3.0676,3.0689,3.0707,3.0709,3.0806,3.0807,3.0799,0,0,0,3.0458,3.0445,3.0481,3.047,3.0535,3.0586,3.054,3.0638,3.0649,3.0688,3.0707,3.071,3.0806,3.0807,3.0799,3.0799,0,0,0,3.044,3.0443,3.0454,3.0469,3.0509,3.0585,3.0601,3.0641,3.0657,3.0706,3.071,3.0806,3.0807,3.0799,3.0799,3.0821,0,0,0,3.0415,3.0446,3.0454,3.0494,3.0508,3.0578,3.0601,3.0655,3.0696,3.0708,3.0806,3.0807,3.0798,3.0799,3.082,3.0836,3.084,0,0,3.0443,3.0449,3.0474,3.0484,3.0548,3.0565,3.063,3.0687,3.0712,3.0775,3.0778,3.0799,3.0799,3.0821,3.087,3.0873,0,0,0,3.0477,3.0495,3.0516,3.0553,3.0597,3.0636,3.0685,3.0708,3.0762,3.0739,3.0813,3.0814,3.0828,3.0836,3.0839,3.0854,3.081,3.0809,3.0809,3.0487,3.0516,3.0561,3.0602,3.0639,3.0691,3.0724,3.0763,3.0782,3.08,3.0818,3.0844,3.0853,3.0856,3.087,3.0828,3.0828,3.0828,3.0828,3.0532,3.0563,3.0588,3.0641,3.0673,3.0719,3.0772,3.0784,3.0834,3.0832,3.0846,3.0841,3.0858,3.0873,3.0828,3.0828,3.0828,3.0828,3.0828,3.0543,3.0563,3.0588,3.0647,3.069,3.0732,3.0779,3.0807,3.0834,3.0848,3.0872,3.0872,3.0877,3.0857,3.0857,3.0857,3.0857,3.0858,3.0858,3.0543,3.0572,3.0607,3.0658,3.0687,3.073,3.0785,3.0816,3.0858,3.0875,3.0875,3.0894,3.0854,3.0843,3.0859,3.0859,3.0859,3.0859,3.0858,3.0578,3.0575,3.0628,3.0657,3.0722,3.0765,3.08,3.0862,3.0892,3.0915,3.0932,3.0897,3.0905,3.0904,3.0895,3.0924,3.0924,3.0924,3.0924,3.0587,3.0594,3.0656,3.0702,3.075,3.0788,3.0853,3.0898,3.0945,3.0967,3.0967,3.0959,3.0955,3.0966,3.0963,3.0955,3.0999,3.0999,3.0999,3.0611,3.0625,3.0671,3.0715,3.0768,3.0815,3.0877,3.0933,3.0986,3.1002,3.0985,3.0982,3.0968,3.0962,3.0977,3.0971,3.0959,0,0]}]]